Regional Weather Roundup
Issued by NWS Midland/Odessa, TX

Home | Current Version | Previous Version | Text Only | Print | Product List | Glossary On
Versions: 1 2 3 4 5 6 7 8 9 10 11 12 13 14 15 16 17 18 19 20 21 22 23 24 25 26 27 28 29 30 31 32 33 34 35 36 37 38 39 40 41 42 43 44 45 46 47 48 49 50
000
ASUS44 KMAF 071310
RWRMAF
MIDLAND AREA WEATHER ROUNDUP
NATIONAL WEATHER SERVICE MIDLAND TX
700 AM CST WED DEC 07 2016

...IN SOUTHWEST TEXAS AND SOUTHEAST NEW MEXICO...

CITY           SKY/WX    TMP DP  RH WIND       PRES   REMARKS
ALPINE         PTCLDY    46  36  66 W10       30.04R
ANDREWS        FOG       35  35 100 S9        29.94R VSB 1   WCI  27
ARTESIA        CLOUDY    34  34 100 SW6       29.90R WCI  29
BIG SPRING     CLOUDY    37  37  97 S9        29.98S WCI  31
CARLSBAD       CLOUDY    33  33 100 SE8       29.90S WCI  26
DRYDEN           N/A     42  41  96 CALM      30.00R
FORT STOCKTON  CLOUDY    36  33  89 S7        29.96R WCI  30
GUAD PASS      NOT AVBL
HOBBS          CLOUDY    32  32 100 SE5       29.92S FOG     WCI  27
MARFA          CLOUDY    32  30  92 NE5       30.02R WCI  27
MIDLAND AIRPK  CLOUDY    37  37 100 S10       29.96R FOG     WCI  30
MIDLAND INTL   CLOUDY    37  35  92 S13       29.94R FOG     WCI  29
ODESSA         CLOUDY    37  35  92 S13       29.94S FOG     WCI  29
PECOS          FOG       35  34  98 S3        29.96S VSB 1/2
PRESIDIO       FAIR      45  39  80 N5        29.97R
SEMINOLE       CLOUDY    34  34 100 CALM      29.95R FOG
SNYDER         CLOUDY    35  32  89 E3        29.99R
WINK           CLOUDY    37  37 100 S10       29.94R FOG     WCI  30
$$
...OTHER STATIONS IN TEXAS...

CITY           SKY/WX    TMP DP  RH WIND       PRES   REMARKS
ABILENE        CLOUDY    35  33  92 SE3       30.02R
AMARILLO       CLOUDY    21  18  88 SE13      29.95R WCI   9
AUSTIN         PTCLDY    38  37  97 CALM      30.07R
BROWNSVILLE    CLOUDY    62  61  96 NW3       29.98R FOG
CORPUS CHRISTI MOCLDY    53  52  96 NE12      30.02R
DALLAS FTW     MOCLDY    39  34  82 CALM      30.06R
DEL RIO        CLOUDY    46  44  93 E7        30.03R
EL PASO        CLOUDY    50  30  46 SW8       29.96R
HOUSTON INT    CLOUDY    49  47  93 NE9       30.07R
LUBBOCK        CLOUDY    30  27  88 E6        29.96R WCI  24
SAN ANGELO     CLOUDY    41  39  93 S7        30.02R WCI  36
SAN ANTONIO    MOCLDY    45  43  93 CALM      30.07R
WACO           CLOUDY    45  43  93 NE3       30.07R
WICHITA FALLS  NOT AVBL
$$
...OTHER LOCATIONS IN NEW MEXICO...

CITY           SKY/WX    TMP DP  RH WIND       PRES   REMARKS
ALAMAGORDO     NOT AVBL
ALBUQUERQUE    CLOUDY    39  25  57 W6        29.94R WCI  35
CANNON AFB     CLOUDY    25  25 100 SW3       29.90R
CLOVIS         CLOUDY    21  16  79 S6        29.90R WCI  14
HOLLOMAN AFB   CLOUDY    43  28  54 SE7       29.98R WCI  39
ROSWELL        CLOUDY    27  23  85 N5        29.89R WCI  22
RUIDOSO        NOT AVBL
SANTA FE       CLOUDY    30  19  63 W9        29.91R WCI  22
TRUTH OR CONSE MOCLDY    38  20  48 SW3       29.92R
TUCUMCARI      CLOUDY    27  23  85 SW7       29.87R WCI  19
$$



USA.gov is the U.S. government's official web portal to all federal, state and local government web resources and services.